AirNav   Get $300 off a Bose A20
 
 1456 users online  

5GA
(formerly 30GA)
Elliott Field Airport
Dawsonville, Georgia, USA

GOING TO DAWSONVILLE?


FAA INFORMATION EFFECTIVE 23 MAY 2019

Location

FAA Identifier: 5GA
Lat/Long: 34-27-30.3050N / 084-10-49.3350W
34-27.505083N / 084-10.822250W
34.4584181 / -84.1803708
(estimated)
Elevation: 1497 ft. / 456 m (estimated)
Variation: 02W (1985)
From city: 4 miles NW of DAWSONVILLE, GA
Time zone: UTC -4 (UTC -5 during Standard Time)
Zip code: 30534

Airport Operations

Airport use: Open to the public
Activation date: 10/1985
Control tower: no
ARTCC: ATLANTA CENTER
FSS: MACON FLIGHT SERVICE STATION
Attendance: UNATNDD
Wind indicator: yes
Segmented circle: no

Airport Communications

CTAF: 122.9
WX AWOS-3PT at JZP (14 nm W): 118.55 ((706) 253-9008)
WX AWOS-3 at CNI (15 nm SW): 119.825 (770-704-6235)
WX AWOS-3 at 49A (20 nm NW): 118.075 (706 276-4513)

Nearby radio navigation aids

VOR radial/distance  VOR name  Freq  Var
HRSr204/31.9HARRIS VORTAC109.8000E
PDKr015/35.5PEACHTREE VOR/DME116.6005W

 
NDB name  Hdg/Dist  Freq  Var  ID
CHERO056/19.641505WDJD -.. .--- -..
FLOWERY BRANCH321/20.536503WFKV ..-. -.- ...-
CARTERSVILLE069/36.330804WEVZ . ...- --..

Airport Services

Fuel available: 100LL JET-A
Parking: tiedowns
Airframe service: NONE
Powerplant service: NONE
Bottled oxygen: NONE
Bulk oxygen: NONE

Runway Information

Runway 14/32

Dimensions: 5619 x 40 ft. / 1713 x 12 m
Surface: asphalt, in poor condition
FAILED PAVEMENT AREAS ALG SW EDGE.
RUNWAY 14  RUNWAY 32
Latitude: 34-27.824500N34-27.185667N
Longitude: 084-11.227333W084-10.417167W
Elevation: 1480.0 ft.1497.0 ft.
Traffic pattern: leftleft
Markings: nonenone
Obstructions: 40 ft. trees, 201 ft. from runway, 87 ft. left of centerline
ROAD LCTD ACRS APCH AS CLOSE AS 15 FT FM END OF RWY, 200 FT R; TREES 38 FT TALL, 146 FT FM END OF RWY, 87 FT L; TREES 32 FT TALL, 101 FT FM END OF RWY, 192 FT R.
15 ft. trees, 201 ft. from runway, 123 ft. left of centerline
TREES LCTD AS CLOSE AS 130 FT FM END OF RWY, 160' L; TREES 15 FT TALL FM RWY END TO 200 FT FM END OF RWY, 114 FT L.

Airport Ownership and Management from official FAA records

Ownership: Privately-owned
Owner: BILL ELLIOTT
415 HIGHWAY 53 EAST, SUITE 100
DAWSONVILLE, GA 30534
Phone (706) 265-3256
Manager: CITY OF DAWSONVILLE
415 HIGHWAY 53 EAST, SUITE 100
DAWSONVILLE, GA 30534
Phone (706) 265-3256

Airport Operational Statistics

Aircraft based on the field: 15
Single engine airplanes: 6
Multi engine airplanes: 3
Jet airplanes: 5
Helicopters: 1
    
Aircraft operations: avg 42/month *
100% local general aviation
* for 12-month period ending 01 August 2018

Additional Remarks

RWY GRADE CHG GTR THAN 2% SLP ON RWY 32 APCH END.

Instrument Procedures

There are no published instrument procedures at 5GA.

Some nearby airports with instrument procedures:

KJZP - Pickens County Airport (14 nm W)
KCNI - Cherokee County Airport (15 nm SW)
49A - Gilmer County Airport (20 nm NW)
KGVL - Lee Gilmer Memorial Airport (21 nm SE)
KDZJ - Blairsville Airport (25 nm N)
 
Loc | Ops | Rwys | IFR | FBO | Links
Com | Nav | Svcs | Stats | Notes
Area around 5GA (Elliott Field Airport)
 
Road maps at: MapQuest Bing Google
 
Aerial photo
No photo
 
Sectional chart

 
Airport distance calculator
Flying to Elliott Field Airport? Find the distance to fly.

From to 5GA

Sunrise and sunset
Times for 24-May-2019
 Local
(UTC-4)
 Zulu
(UTC)
Morning civil twilight06:0110:01
Sunrise06:3010:30
Sunset20:3700:37
Evening civil twilight21:0601:06

Current date and time
Zulu (UTC)  24-May-2019 16:55:03
Local (UTC-4)  24-May-2019 12:55:03
 
METAR
KJZP 
14nm W 
241635Z AUTO 35009KT 10SM SCT034 SCT040 29/20 A3027 RMK AO2 T02890204 PNO
KCNI 
15nm SW 
241635Z AUTO 32007KT 10SM SCT039 SCT045 BKN090 30/18 A3023 RMK AO2
K49A 
20nm NW 
241635Z AUTO 28005KT 10SM SCT036 SCT050 SCT080 30/20 A3027 RMK AO2 T02980199
KGVL 
21nm SE 
241553Z AUTO 24007KT 10SM CLR 29/21 A3024 RMK AO2 SLP223 T02940206
KDZJ 
25nm N 
241635Z AUTO 00000KT 10SM SCT044 BKN060 OVC090 28/20 A3027 RMK AO2 T02820195
TAF
KRYY 
34nm SW 
241330Z 2414/2512 24006KT P6SM FEW080 FM241600 26007KT P6SM FEW045 FM250100 00000KT P6SM FEW060 SCT250
KPDK 
35nm S 
241330Z 2414/2512 22006KT P6SM FEW080 FM241600 26007KT P6SM FEW045 FM250100 00000KT P6SM FEW060 SCT250
KMGE 
37nm SW 
241305Z 2413/2519 24005KT 9999 FEW100 FEW250 QNH3015INS BECMG 2414/2415 28010KT 9999 FEW045 FEW100 FEW250 QNH3008INS BECMG 2500/2501 VRB03KT 9999 FEW250 QNH3008INS WND 26005KT AFT 2514 BECMG 2515/2516 26008KT 9999 FEW045 FEW250 QNH3010INS TX33/2420Z TN21/2511Z
NOTAMs
Click for the latest NOTAMs
NOTAMs are issued by the DoD/FAA and will open in a separate window not controlled by AirNav.

 

 
 

FBO, Fuel Providers, and Aircraft Ground Support

  
 Business Name 
 
 Contact 
 
 Services / Description 
 
Fuel Prices
 
Comments
  
Elliott Airport 706-265-3030
no information available

If you are affiliated with Elliott Airport and would like to show here your services, contact info, web link, logo, and more, click here
100LL Jet A
SS $3.96 $3.00 
 Updated 13-May-2019
 
   write
SS=Self service
Update Fuel Prices
 

Would you like to see your business listed on this page?

 If your business provides an interesting product or service to pilots, flight crews, aircraft, or users of the Elliott Field Airport, you should consider listing it here.  To start the listing process, click on the button below
 
Add a business
 

Other Pages about Elliott Field Airport

Update a link
 
Copyright © AirNav, LLC. All rights reserved. Privacy Policy  Contact